| time (UTC) | temp F | wind direction | speed MPH | gust MPH | rain 1hr in | rain 24hr in | rain mn in | humidity % | barometer mb |
| 20260905015105 | 79 | 0.0 | 0.0 | 0.00 | 0.00 | 0.00 | 42 | 1024.4 | |
| 20260905014105 | 79 | 0.0 | 0.0 | 0.00 | 0.00 | 0.00 | 40 | 1024.6 | |
| 20260905013125 | 80 | 0.0 | 1.0 | 0.00 | 0.00 | 0.00 | 39 | 1024.8 | |
| 20260905012105 | 79 | 152 | 0.0 | 2.0 | 0.00 | 0.00 | 0.00 | 38 | 1024.9 |
| 20260905011125 | 79 | 0.0 | 0.0 | 0.00 | 0.00 | 0.00 | 38 | 1024.8 | |
| 20260905010104 | 80 | 0.0 | 0.0 | 0.00 | 0.00 | 0.00 | 33 | 1025.0 | |
| 20260905005104 | 79 | 0.0 | 0.0 | 0.00 | 0.00 | 0.00 | 34 | 1025.2 | |
| 20260905004104 | 79 | 0.0 | 0.0 | 0.00 | 0.00 | 0.00 | 33 | 1025.0 | |
| 20260905003124 | 79 | 0.0 | 1.0 | 0.00 | 0.00 | 0.00 | 32 | 1025.1 | |
| 20260905002106 | 80 | 0.0 | 1.0 | 0.00 | 0.00 | 0.00 | 31 | 1025.2 | |
| 20260905001105 | 80 | 314 | 1.0 | 3.0 | 0.00 | 0.00 | 0.00 | 31 | 1025.1 |
| 20260905000104 | 80 | 300 | 1.0 | 2.0 | 0.00 | 0.00 | 0.00 | 32 | 1025.3 |
| 20260904235106 | 79 | 274 | 1.0 | 2.0 | 0.00 | 0.00 | 0.00 | 35 | 1025.2 |
| 20260904234104 | 79 | 324 | 2.0 | 3.0 | 0.00 | 0.00 | 0.00 | 39 | 1025.4 |
| 20260904233104 | 78 | 306 | 1.0 | 2.0 | 0.00 | 0.00 | 0.00 | 42 | 1025.6 |
| 20260904232104 | 77 | 0.0 | 0.0 | 0.00 | 0.00 | 0.00 | 46 | 1025.5 | |
| 20260904231105 | 78 | 0.0 | 0.0 | 0.00 | 0.00 | 0.00 | 45 | 1025.6 | |
| 20260904230104 | 77 | 0.0 | 0.0 | 0.00 | 0.00 | 0.00 | 45 | 1025.6 | |
| 20260904225104 | 78 | 0.0 | 0.0 | 0.00 | 0.00 | 0.00 | 44 | 1025.5 | |
| 20260904224104 | 78 | 0.0 | 0.0 | 0.00 | 0.00 | 0.00 | 42 | 1025.5 | |
| 20260904223104 | 79 | 0.0 | 0.0 | 0.00 | 0.00 | 0.00 | 42 | 1025.3 | |
| 20260904222105 | 79 | 0.0 | 0.0 | 0.00 | 0.00 | 0.00 | 43 | 1025.4 | |
| 20260904221105 | 79 | 0.0 | 0.0 | 0.00 | 0.00 | 0.00 | 41 | 1025.4 | |
| 20260904220104 | 79 | 0.0 | 0.0 | 0.00 | 0.00 | 0.00 | 41 | 1025.4 | |
| 20260904215104 | 80 | 0.0 | 0.0 | 0.00 | 0.00 | 0.00 | 40 | 1025.4 | |
| 20260904214124 | 79 | 0.0 | 0.0 | 0.00 | 0.00 | 0.00 | 41 | 1025.5 | |
| 20260904213104 | 79 | 0.0 | 0.0 | 0.00 | 0.00 | 0.00 | 43 | 1025.3 | |
| 20260904212105 | 79 | 0.0 | 0.0 | 0.00 | 0.00 | 0.00 | 45 | 1025.6 | |
| 20260904211104 | 79 | 24 | 0.0 | 1.0 | 0.00 | 0.00 | 0.00 | 46 | 1025.5 |
| 20260904210105 | 79 | 289 | 1.0 | 1.0 | 0.00 | 0.00 | 0.00 | 47 | 1025.7 |
| 20260904205124 | 79 | 306 | 1.0 | 2.0 | 0.00 | 0.00 | 0.00 | 47 | 1025.6 |
| 20260904204104 | 79 | 332 | 1.0 | 2.0 | 0.00 | 0.00 | 0.00 | 48 | 1025.7 |
| 20260904203125 | 79 | 339 | 1.0 | 3.0 | 0.00 | 0.00 | 0.00 | 47 | 1025.6 |
| 20260904202124 | 80 | 322 | 2.0 | 3.0 | 0.00 | 0.00 | 0.00 | 47 | 1025.8 |
| 20260904201104 | 80 | 267 | 1.0 | 2.0 | 0.00 | 0.00 | 0.00 | 47 | 1025.8 |
| 20260904200104 | 80 | 283 | 2.0 | 4.0 | 0.00 | 0.00 | 0.00 | 46 | 1025.7 |
| 20260904195124 | 80 | 324 | 3.0 | 4.0 | 0.00 | 0.00 | 0.00 | 46 | 1025.8 |
| 20260904194106 | 79 | 315 | 3.0 | 4.0 | 0.00 | 0.00 | 0.00 | 47 | 1025.9 |
| 20260904193104 | 79 | 299 | 2.0 | 4.0 | 0.00 | 0.00 | 0.00 | 47 | 1025.9 |
| 20260904192127 | 79 | 301 | 3.0 | 6.0 | 0.00 | 0.00 | 0.00 | 47 | 1025.7 |
| 20260904191105 | 79 | 310 | 3.0 | 6.0 | 0.00 | 0.00 | 0.00 | 47 | 1025.8 |
| 20260904190105 | 79 | 306 | 3.0 | 6.0 | 0.00 | 0.00 | 0.00 | 47 | 1025.8 |
| 20260904185104 | 79 | 289 | 4.0 | 7.0 | 0.00 | 0.00 | 0.00 | 46 | 1025.8 |
| 20260904184105 | 80 | 286 | 4.0 | 8.0 | 0.00 | 0.00 | 0.00 | 45 | 1025.5 |
| 20260904183104 | 80 | 298 | 4.0 | 8.0 | 0.00 | 0.00 | 0.00 | 45 | 1025.4 |
| 20260904182105 | 80 | 315 | 3.0 | 6.0 | 0.00 | 0.00 | 0.00 | 45 | 1025.4 |
| 20260904181104 | 80 | 299 | 4.0 | 7.0 | 0.00 | 0.00 | 0.00 | 48 | 1025.1 |
| 20260904180124 | 80 | 281 | 3.0 | 6.0 | 0.00 | 0.00 | 0.00 | 49 | 1024.9 |
| 20260904175104 | 81 | 283 | 3.0 | 4.0 | 0.00 | 0.00 | 0.00 | 50 | 1024.8 |
| 20260904174104 | 81 | 288 | 3.0 | 4.0 | 0.00 | 0.00 | 0.00 | 50 | 1024.9 |
| 20260904173104 | 81 | 314 | 3.0 | 6.0 | 0.00 | 0.00 | 0.00 | 50 | 1024.9 |
| 20260904172105 | 82 | 302 | 4.0 | 8.0 | 0.00 | 0.00 | 0.00 | 49 | 1024.9 |
| 20260904171106 | 83 | 333 | 5.0 | 8.0 | 0.00 | 0.00 | 0.00 | 48 | 1025.0 |
| 20260904170105 | 83 | 318 | 4.0 | 9.0 | 0.00 | 0.00 | 0.00 | 46 | 1025.0 |
| 20260904165104 | 84 | 278 | 6.0 | 10.0 | 0.00 | 0.00 | 0.00 | 45 | 1024.8 |
| 20260904164104 | 84 | 300 | 5.0 | 10.0 | 0.00 | 0.00 | 0.00 | 44 | 1024.7 |
| 20260904163104 | 84 | 317 | 5.0 | 10.0 | 0.00 | 0.00 | 0.00 | 43 | 1024.9 |
| 20260904162105 | 85 | 283 | 4.0 | 9.0 | 0.00 | 0.00 | 0.00 | 43 | 1024.7 |
| 20260904161105 | 85 | 348 | 5.0 | 9.0 | 0.00 | 0.00 | 0.00 | 43 | 1024.7 |
| 20260904160104 | 85 | 324 | 6.0 | 10.0 | 0.00 | 0.00 | 0.00 | 42 | 1024.8 |
| 20260904155125 | 86 | 305 | 5.0 | 13.0 | 0.00 | 0.00 | 0.00 | 42 | 1024.6 |
| 20260904154106 | 86 | 332 | 4.0 | 9.0 | 0.00 | 0.00 | 0.00 | 42 | 1024.7 |
| 20260904153104 | 86 | 284 | 4.0 | 9.0 | 0.00 | 0.00 | 0.00 | 42 | 1024.7 |
| 20260904152105 | 87 | 314 | 2.0 | 10.0 | 0.00 | 0.00 | 0.00 | 42 | 1024.8 |
| 20260904151105 | 87 | 17 | 1.0 | 4.0 | 0.00 | 0.00 | 0.00 | 42 | 1024.6 |
| 20260904150105 | 87 | 68 | 1.0 | 3.0 | 0.00 | 0.00 | 0.00 | 41 | 1024.7 |
| 20260904145104 | 87 | 18 | 3.0 | 9.0 | 0.00 | 0.00 | 0.00 | 42 | 1024.7 |
| 20260904144124 | 87 | 24 | 2.0 | 6.0 | 0.00 | 0.00 | 0.00 | 43 | 1024.7 |
| 20260904143104 | 87 | 295 | 4.0 | 10.0 | 0.00 | 0.00 | 0.00 | 43 | 1024.7 |
| 20260904142104 | 87 | 294 | 7.0 | 14.0 | 0.00 | 0.00 | 0.00 | 43 | 1024.8 |
| 20260904141104 | 87 | 316 | 5.0 | 13.0 | 0.00 | 0.00 | 0.00 | 42 | 1024.9 |
| 20260904140104 | 88 | 337 | 3.0 | 10.0 | 0.00 | 0.00 | 0.00 | 40 | 1024.7 |
| 20260904135104 | 88 | 300 | 3.0 | 9.0 | 0.00 | 0.00 | 0.00 | 41 | 1024.6 |
| 20260904134104 | 88 | 78 | 3.0 | 9.0 | 0.00 | 0.00 | 0.00 | 41 | 1024.7 |
| 20260904133104 | 88 | 307 | 7.0 | 10.0 | 0.00 | 0.00 | 0.00 | 41 | 1024.8 |
| 20260904132104 | 89 | 223 | 2.0 | 9.0 | 0.00 | 0.00 | 0.00 | 40 | 1024.9 |
| 20260904131104 | 89 | 119 | 1.0 | 2.0 | 0.00 | 0.00 | 0.00 | 38 | 1024.9 |
| 20260904130104 | 90 | 110 | 1.0 | 2.0 | 0.00 | 0.00 | 0.00 | 38 | 1024.9 |
| 20260904125104 | 88 | 138 | 0.0 | 2.0 | 0.00 | 0.00 | 0.00 | 40 | 1024.9 |
| 20260904124105 | 88 | 349 | 2.0 | 4.0 | 0.00 | 0.00 | 0.00 | 41 | 1025.3 |
| 20260904123104 | 88 | 63 | 2.0 | 7.0 | 0.00 | 0.00 | 0.00 | 40 | 1025.2 |
| 20260904122104 | 87 | 276 | 2.0 | 8.0 | 0.00 | 0.00 | 0.00 | 41 | 1025.2 |
| 20260904121104 | 87 | 313 | 3.0 | 6.0 | 0.00 | 0.00 | 0.00 | 41 | 1025.4 |
| 20260904120124 | 87 | 305 | 3.0 | 8.0 | 0.00 | 0.00 | 0.00 | 41 | 1025.3 |
| 20260904115104 | 88 | 334 | 2.0 | 6.0 | 0.00 | 0.00 | 0.00 | 40 | 1025.4 |
| 20260904114104 | 87 | 121 | 1.0 | 7.0 | 0.00 | 0.00 | 0.00 | 39 | 1025.5 |
| 20260904113104 | 87 | 28 | 0.0 | 3.0 | 0.00 | 0.00 | 0.00 | 37 | 1025.7 |
| 20260904112104 | 89 | 156 | 0.0 | 3.0 | 0.00 | 0.00 | 0.00 | 36 | 1025.7 |
| 20260904111104 | 89 | 144 | 0.0 | 2.0 | 0.00 | 0.00 | 0.00 | 37 | 1025.6 |
| 20260904110105 | 88 | 1 | 2.0 | 6.0 | 0.00 | 0.00 | 0.00 | 39 | 1025.6 |
| 20260904105105 | 87 | 54 | 2.0 | 4.0 | 0.00 | 0.00 | 0.00 | 42 | 1025.7 |
| 20260904104104 | 87 | 184 | 2.0 | 4.0 | 0.00 | 0.00 | 0.00 | 42 | 1025.8 |
| 20260904103124 | 88 | 196 | 1.0 | 3.0 | 0.00 | 0.00 | 0.00 | 42 | 1025.8 |
| 20260904102104 | 88 | 136 | 0.0 | 1.0 | 0.00 | 0.00 | 0.00 | 43 | 1025.9 |
| 20260904101105 | 87 | 111 | 1.0 | 2.0 | 0.00 | 0.00 | 0.00 | 45 | 1025.9 |
| 20260904100125 | 87 | 119 | 1.0 | 2.0 | 0.00 | 0.00 | 0.00 | 45 | 1026.0 |
| 20260904095104 | 86 | 153 | 1.0 | 1.0 | 0.00 | 0.00 | 0.00 | 46 | 1025.9 |
| 20260904094104 | 87 | 141 | 0.0 | 2.0 | 0.00 | 0.00 | 0.00 | 45 | 1025.8 |
| 20260904093104 | 85 | 149 | 0.0 | 2.0 | 0.00 | 0.00 | 0.00 | 46 | 1025.9 |
| 20260904092105 | 86 | 109 | 1.0 | 2.0 | 0.00 | 0.00 | 0.00 | 46 | 1026.0 |
| 20260904091105 | 85 | 140 | 0.0 | 1.0 | 0.00 | 0.00 | 0.00 | 48 | 1026.0 |
| 20260904090104 | 85 | 0.0 | 0.0 | 0.00 | 0.00 | 0.00 | 47 | 1025.8 | |
| 20260904085104 | 85 | 107 | 1.0 | 2.0 | 0.00 | 0.00 | 0.00 | 49 | 1025.9 |
| 20260904084126 | 84 | 0.0 | 1.0 | 0.00 | 0.00 | 0.00 | 51 | 1025.9 | |
| 20260904083104 | 83 | 125 | 0.0 | 2.0 | 0.00 | 0.00 | 0.00 | 53 | 1025.7 |
| 20260904082124 | 83 | 136 | 0.0 | 1.0 | 0.00 | 0.00 | 0.00 | 54 | 1025.5 |
| 20260904081104 | 82 | 113 | 0.0 | 1.0 | 0.00 | 0.00 | 0.00 | 56 | 1025.5 |
| 20260904080104 | 81 | 0.0 | 1.0 | 0.00 | 0.00 | 0.00 | 57 | 1025.6 | |
| 20260904075104 | 79 | 126 | 0.0 | 2.0 | 0.00 | 0.00 | 0.00 | 60 | 1025.3 |
| 20260904074104 | 78 | 0.0 | 0.0 | 0.00 | 0.00 | 0.00 | 62 | 1025.2 | |
| 20260904073104 | 78 | 0.0 | 0.0 | 0.00 | 0.00 | 0.00 | 63 | 1025.2 | |
| 20260904072105 | 77 | 0.0 | 0.0 | 0.00 | 0.00 | 0.00 | 60 | 1025.1 | |
| 20260904071105 | 77 | 0.0 | 0.0 | 0.00 | 0.00 | 0.00 | 60 | 1025.0 | |
| 20260904070105 | 77 | 0.0 | 0.0 | 0.00 | 0.00 | 0.00 | 59 | 1025.0 | |
| 20260904065105 | 76 | 0.0 | 0.0 | 0.00 | 0.00 | 0.00 | 60 | 1024.8 | |
| 20260904064104 | 76 | 0.0 | 0.0 | 0.00 | 0.00 | 0.00 | 60 | 1024.9 | |
| 20260904063104 | 76 | 0.0 | 0.0 | 0.00 | 0.00 | 0.00 | 59 | 1024.6 | |
| 20260904062105 | 75 | 0.0 | 0.0 | 0.00 | 0.00 | 0.00 | 60 | 1024.6 | |
| 20260904061105 | 75 | 0.0 | 0.0 | 0.00 | 0.00 | 0.00 | 61 | 1024.4 | |
| 20260904060105 | 75 | 0.0 | 0.0 | 0.00 | 0.00 | 0.00 | 61 | 1024.4 | |
| 20260904055104 | 75 | 0.0 | 0.0 | 0.00 | 0.00 | 0.00 | 60 | 1024.4 | |
| 20260904054104 | 75 | 0.0 | 0.0 | 0.00 | 0.00 | 0.00 | 61 | 1024.4 | |
| 20260904053104 | 75 | 0.0 | 0.0 | 0.00 | 0.00 | 0.00 | 61 | 1024.4 | |
| 20260904052105 | 74 | 0.0 | 0.0 | 0.00 | 0.00 | 0.00 | 62 | 1024.4 | |
| 20260904051105 | 74 | 0.0 | 0.0 | 0.00 | 0.00 | 0.00 | 63 | 1024.2 | |
| 20260904050105 | 74 | 0.0 | 0.0 | 0.00 | 0.00 | 0.00 | 62 | 1024.1 | |
| 20260904045104 | 74 | 0.0 | 0.0 | 0.00 | 0.00 | 0.00 | 62 | 1024.1 | |
| 20260904044104 | 74 | 0.0 | 0.0 | 0.00 | 0.00 | 0.00 | 62 | 1024.2 | |
| 20260904043124 | 74 | 0.0 | 0.0 | 0.00 | 0.00 | 0.00 | 62 | 1024.2 | |
| 20260904042104 | 74 | 0.0 | 0.0 | 0.00 | 0.00 | 0.00 | 62 | 1024.0 | |
| 20260904041125 | 75 | 0.0 | 0.0 | 0.00 | 0.00 | 0.00 | 63 | 1024.1 | |
| 20260904040105 | 76 | 217 | 0.0 | 2.0 | 0.00 | 0.00 | 0.00 | 61 | 1023.9 |
| 20260904035104 | 77 | 146 | 3.0 | 6.0 | 0.00 | 0.00 | 0.00 | 59 | 1023.8 |
| 20260904034104 | 77 | 149 | 5.0 | 7.0 | 0.00 | 0.00 | 0.00 | 59 | 1023.7 |
| 20260904033104 | 78 | 144 | 4.0 | 8.0 | 0.00 | 0.00 | 0.00 | 58 | 1023.7 |
| 20260904032124 | 78 | 152 | 6.0 | 10.0 | 0.00 | 0.00 | 0.00 | 58 | 1023.9 |
| 20260904031105 | 78 | 156 | 6.0 | 9.0 | 0.00 | 0.00 | 0.00 | 58 | 1023.9 |
| 20260904030145 | 78 | 154 | 6.0 | 10.0 | 0.00 | 0.00 | 0.00 | 58 | 1023.8 |
| 20260904025144 | 78 | 143 | 7.0 | 9.0 | 0.00 | 0.00 | 0.00 | 59 | 1023.8 |
| 20260904024124 | 78 | 152 | 6.0 | 9.0 | 0.00 | 0.00 | 0.00 | 58 | 1023.8 |
| 20260904023103 | 78 | 149 | 7.0 | 9.0 | 0.00 | 0.00 | 0.00 | 57 | 1023.9 |
| 20260904022105 | 78 | 156 | 6.0 | 8.0 | 0.00 | 0.00 | 0.00 | 57 | 1023.9 |
| 20260904021125 | 78 | 155 | 5.0 | 10.0 | 0.00 | 0.00 | 0.00 | 57 | 1024.0 |
| 20260904020104 | 78 | 154 | 6.0 | 10.0 | 0.00 | 0.00 | 0.00 | 57 | 1023.8 |